Time,TemperatureF,DewpointF,PressureIn,WindDirection,WindDirectionDegrees,WindSpeedMPH,WindSpeedGustMPH,Humidity,HourlyPrecipIn,Conditions,Clouds,dailyrainin,SoftwareType,DateUTC
2013-06-02 00:07:00,70.8,64.7,29.85,WSW,241,0.0,0.0,81,0.00,,CLR,0.00,VWS V14.01,2013-06-02 04:07:00,
2013-06-02 00:12:00,70.8,64.7,29.85,WSW,241,0.0,0.0,81,0.00,,CLR,0.00,VWS V14.01,2013-06-02 04:12:00,
2013-06-02 00:17:00,70.6,64.8,29.85,WSW,241,0.0,0.0,82,0.00,,CLR,0.00,VWS V14.01,2013-06-02 04:17:00,
2013-06-02 00:22:00,70.6,65.2,29.85,WSW,241,0.0,0.0,83,0.00,,CLR,0.00,VWS V14.01,2013-06-02 04:22:00,
2013-06-02 00:27:00,70.6,65.2,29.85,WSW,241,0.0,0.0,83,0.00,,CLR,0.00,VWS V14.01,2013-06-02 04:27:00,
2013-06-02 00:32:00,70.5,65.1,29.85,WSW,241,0.0,0.0,83,0.00,,CLR,0.00,VWS V14.01,2013-06-02 04:32:00,
2013-06-02 00:37:00,70.5,65.1,29.85,WSW,241,0.0,0.0,83,0.00,,CLR,0.00,VWS V14.01,2013-06-02 04:37:00,
2013-06-02 00:42:00,70.3,64.9,29.85,WSW,241,0.0,0.0,83,0.00,,CLR,0.00,VWS V14.01,2013-06-02 04:42:00,
2013-06-02 00:47:00,70.3,65.2,29.84,WSW,241,0.0,0.0,84,0.00,,CLR,0.00,VWS V14.01,2013-06-02 04:47:00,
2013-06-02 00:52:00,70.3,65.2,29.84,WSW,241,0.0,0.0,84,0.00,,CLR,0.00,VWS V14.01,2013-06-02 04:52:00,
2013-06-02 00:57:00,70.3,65.2,29.84,WSW,241,0.0,0.0,84,0.00,,CLR,0.00,VWS V14.01,2013-06-02 04:57:00,
2013-06-02 01:02:00,70.3,65.2,29.84,WSW,241,0.0,0.0,84,0.00,,CLR,0.00,VWS V14.01,2013-06-02 05:02:00,
2013-06-02 01:07:00,70.1,65.1,29.84,WSW,241,0.0,0.0,84,0.00,,CLR,0.00,VWS V14.01,2013-06-02 05:07:00,
2013-06-02 01:12:00,69.9,64.8,29.84,WSW,241,0.0,0.0,84,0.00,,CLR,0.00,VWS V14.01,2013-06-02 05:12:00,
2013-06-02 01:17:00,69.8,64.4,29.84,WSW,241,0.0,0.0,83,0.00,,CLR,0.00,VWS V14.01,2013-06-02 05:17:00,
2013-06-02 01:22:00,69.6,64.6,29.84,WSW,241,0.0,0.0,84,0.00,,CLR,0.00,VWS V14.01,2013-06-02 05:22:00,
2013-06-02 01:27:00,69.4,64.4,29.84,WSW,241,0.0,0.0,84,0.00,,CLR,0.00,VWS V14.01,2013-06-02 05:27:00,
2013-06-02 01:32:00,69.3,64.9,29.84,WSW,241,0.0,0.0,86,0.00,,CLR,0.00,VWS V14.01,2013-06-02 05:32:00,
2013-06-02 01:37:00,69.3,65.3,29.84,WSW,241,0.0,0.0,87,0.00,,CLR,0.00,VWS V14.01,2013-06-02 05:37:00,
2013-06-02 01:42:00,69.4,65.4,29.84,WSW,241,0.0,0.0,87,0.00,,CLR,0.00,VWS V14.01,2013-06-02 05:42:00,
2013-06-02 01:47:00,69.4,65.4,29.84,WSW,241,0.0,0.0,87,0.00,,CLR,0.00,VWS V14.01,2013-06-02 05:47:00,
2013-06-02 01:52:00,69.4,65.4,29.84,WSW,241,0.0,0.0,87,0.00,,CLR,0.00,VWS V14.01,2013-06-02 05:52:00,
2013-06-02 01:57:00,69.4,65.4,29.84,WSW,241,0.0,0.0,87,0.00,,CLR,0.00,VWS V14.01,2013-06-02 05:57:00,
2013-06-02 02:02:00,69.4,65.4,29.83,WSW,241,0.0,0.0,87,0.00,,CLR,0.00,VWS V14.01,2013-06-02 06:02:00,
2013-06-02 02:07:00,69.4,65.4,29.83,WSW,241,0.0,0.0,87,0.00,,CLR,0.00,VWS V14.01,2013-06-02 06:07:00,
2013-06-02 02:12:00,69.3,64.6,29.83,WSW,241,0.0,0.0,85,0.00,,CLR,0.00,VWS V14.01,2013-06-02 06:12:00,
2013-06-02 02:17:00,68.9,64.2,29.83,WSW,241,0.0,0.0,85,0.00,,CLR,0.00,VWS V14.01,2013-06-02 06:17:00,
2013-06-02 02:22:00,68.6,63.9,29.83,WSW,241,0.0,0.0,85,0.00,,CLR,0.00,VWS V14.01,2013-06-02 06:22:00,
2013-06-02 02:27:00,68.4,64.1,29.83,WSW,241,0.0,0.0,86,0.00,,CLR,0.00,VWS V14.01,2013-06-02 06:27:00,
2013-06-02 02:32:00,68.4,64.1,29.83,WSW,241,0.0,0.0,86,0.00,,CLR,0.00,VWS V14.01,2013-06-02 06:32:00,
2013-06-02 02:37:00,68.3,64.3,29.83,WSW,241,0.0,0.0,87,0.00,,CLR,0.00,VWS V14.01,2013-06-02 06:37:00,
2013-06-02 02:42:00,68.1,64.4,29.83,WSW,241,0.0,0.0,88,0.00,,CLR,0.00,VWS V14.01,2013-06-02 06:42:00,
2013-06-02 02:47:00,68.1,64.4,29.83,WSW,245,0.0,1.5,88,0.00,,CLR,0.00,VWS V14.01,2013-06-02 06:47:00,
2013-06-02 02:52:00,67.9,64.2,29.83,WSW,244,0.0,1.5,88,0.00,,CLR,0.00,VWS V14.01,2013-06-02 06:52:00,
2013-06-02 02:57:00,67.8,64.4,29.83,WSW,244,0.0,1.5,89,0.00,,CLR,0.00,VWS V14.01,2013-06-02 06:57:00,
2013-06-02 03:02:00,67.6,64.2,29.83,WSW,243,0.0,1.5,89,0.00,,CLR,0.00,VWS V14.01,2013-06-02 07:02:00,
2013-06-02 03:07:00,67.4,64.1,29.83,WSW,243,0.0,1.5,89,0.00,,CLR,0.00,VWS V14.01,2013-06-02 07:07:00,
2013-06-02 03:12:00,67.4,64.1,29.83,WSW,244,0.0,1.5,89,0.00,,CLR,0.00,VWS V14.01,2013-06-02 07:12:00,
2013-06-02 03:17:00,67.3,64.0,29.83,WSW,244,0.0,1.5,89,0.00,,CLR,0.00,VWS V14.01,2013-06-02 07:17:00,
2013-06-02 03:22:00,67.3,64.0,29.83,WSW,244,0.0,0.0,89,0.00,,CLR,0.00,VWS V14.01,2013-06-02 07:22:00,
2013-06-02 03:27:00,67.1,63.8,29.83,WSW,244,0.0,0.0,89,0.00,,CLR,0.00,VWS V14.01,2013-06-02 07:27:00,
2013-06-02 03:32:00,67.1,63.8,29.83,WSW,243,0.0,0.0,89,0.00,,CLR,0.00,VWS V14.01,2013-06-02 07:32:00,
2013-06-02 03:37:00,66.9,63.6,29.83,WSW,244,0.0,0.0,89,0.00,,CLR,0.00,VWS V14.01,2013-06-02 07:37:00,
2013-06-02 03:42:00,66.9,63.9,29.83,WSW,244,0.0,0.0,90,0.00,,CLR,0.00,VWS V14.01,2013-06-02 07:42:00,
2013-06-02 03:47:00,66.8,63.8,29.83,WSW,244,0.0,0.0,90,0.00,,CLR,0.00,VWS V14.01,2013-06-02 07:47:00,
2013-06-02 03:52:00,66.8,63.8,29.83,WSW,244,0.0,0.0,90,0.00,,CLR,0.00,VWS V14.01,2013-06-02 07:52:00,
2013-06-02 03:57:00,66.8,64.1,29.83,WSW,244,0.0,0.0,91,0.00,,CLR,0.00,VWS V14.01,2013-06-02 07:57:00,
2013-06-02 04:02:00,66.8,64.1,29.82,WSW,244,0.0,0.0,91,0.00,,CLR,0.00,VWS V14.01,2013-06-02 08:02:00,
2013-06-02 04:07:00,66.6,63.9,29.82,WSW,245,0.0,0.0,91,0.00,,CLR,0.00,VWS V14.01,2013-06-02 08:07:00,
2013-06-02 04:12:00,66.6,63.9,29.82,WSW,244,0.0,0.0,91,0.00,,CLR,0.00,VWS V14.01,2013-06-02 08:12:00,
2013-06-02 04:17:00,66.6,63.9,29.82,WSW,244,0.0,0.0,91,0.00,,CLR,0.00,VWS V14.01,2013-06-02 08:17:00,
2013-06-02 04:22:00,66.6,64.2,29.82,WSW,244,0.0,0.0,92,0.00,,CLR,0.00,VWS V14.01,2013-06-02 08:22:00,
2013-06-02 04:27:00,66.4,64.0,29.82,WSW,244,0.0,0.0,92,0.00,,CLR,0.00,VWS V14.01,2013-06-02 08:27:00,
2013-06-02 04:32:00,66.4,64.0,29.82,WSW,244,0.0,0.0,92,0.00,,CLR,0.00,VWS V14.01,2013-06-02 08:32:00,
2013-06-02 04:37:00,66.4,64.0,29.82,WSW,244,0.0,0.0,92,0.00,,CLR,0.00,VWS V14.01,2013-06-02 08:37:00,
2013-06-02 04:42:00,66.3,63.9,29.82,WSW,244,0.0,0.0,92,0.00,,CLR,0.00,VWS V14.01,2013-06-02 08:42:00,
2013-06-02 04:47:00,66.3,63.9,29.82,WSW,244,0.0,0.0,92,0.00,,CLR,0.00,VWS V14.01,2013-06-02 08:47:00,
2013-06-02 04:52:00,66.4,64.0,29.82,WSW,243,0.0,0.0,92,0.00,,CLR,0.00,VWS V14.01,2013-06-02 08:52:00,
2013-06-02 04:57:00,66.4,64.0,29.82,WSW,244,0.0,0.0,92,0.00,,CLR,0.00,VWS V14.01,2013-06-02 08:57:00,
2013-06-02 05:02:00,66.4,64.0,29.82,WSW,244,0.0,0.0,92,0.00,,CLR,0.00,VWS V14.01,2013-06-02 09:02:00,
2013-06-02 05:07:00,66.3,63.9,29.82,WSW,243,0.0,0.0,92,0.00,,CLR,0.00,VWS V14.01,2013-06-02 09:07:00,
2013-06-02 05:12:00,66.1,63.7,29.82,WSW,244,0.0,0.0,92,0.00,,CLR,0.00,VWS V14.01,2013-06-02 09:12:00,
2013-06-02 05:17:00,66.1,63.7,29.82,WSW,244,0.0,0.0,92,0.00,,CLR,0.00,VWS V14.01,2013-06-02 09:17:00,
2013-06-02 05:22:00,65.9,63.5,29.82,WSW,244,0.0,0.0,92,0.00,,CLR,0.00,VWS V14.01,2013-06-02 09:22:00,
2013-06-02 05:27:00,65.9,63.5,29.82,WSW,244,0.0,0.0,92,0.00,,CLR,0.00,VWS V14.01,2013-06-02 09:27:00,
2013-06-02 05:32:00,65.8,63.4,29.82,WSW,243,0.0,0.0,92,0.00,,CLR,0.00,VWS V14.01,2013-06-02 09:32:00,
2013-06-02 05:37:00,65.8,63.4,29.82,WSW,244,0.0,0.0,92,0.00,,CLR,0.00,VWS V14.01,2013-06-02 09:37:00,
2013-06-02 05:42:00,65.9,63.5,29.82,WSW,244,0.0,0.0,92,0.00,,CLR,0.00,VWS V14.01,2013-06-02 09:42:00,
2013-06-02 05:47:00,65.8,63.4,29.82,WSW,244,0.0,0.0,92,0.00,,CLR,0.00,VWS V14.01,2013-06-02 09:47:00,
2013-06-02 05:52:00,65.8,63.4,29.82,WSW,244,0.0,0.0,92,0.00,,CLR,0.00,VWS V14.01,2013-06-02 09:52:00,
2013-06-02 05:57:00,65.9,63.5,29.82,WSW,244,0.0,0.0,92,0.00,,CLR,0.00,VWS V14.01,2013-06-02 09:57:00,
2013-06-02 06:02:00,66.1,63.7,29.82,WSW,244,0.0,0.0,92,0.00,,CLR,0.00,VWS V14.01,2013-06-02 10:02:00,
2013-06-02 06:07:00,66.3,64.2,29.82,WSW,244,0.0,0.0,93,0.00,,CLR,0.00,VWS V14.01,2013-06-02 10:07:00,
2013-06-02 06:12:00,66.6,64.5,29.82,WSW,244,0.0,0.0,93,0.00,,CLR,0.00,VWS V14.01,2013-06-02 10:12:00,
2013-06-02 06:17:00,66.8,64.7,29.82,WSW,243,0.0,0.0,93,0.00,,CLR,0.00,VWS V14.01,2013-06-02 10:17:00,
2013-06-02 06:22:00,67.1,65.0,29.82,WSW,244,0.0,0.0,93,0.00,,CLR,0.00,VWS V14.01,2013-06-02 10:22:00,
2013-06-02 06:27:00,67.4,65.3,29.82,WSW,244,0.0,0.0,93,0.00,,CLR,0.00,VWS V14.01,2013-06-02 10:27:00,
2013-06-02 06:32:00,67.9,65.8,29.82,WSW,244,0.0,0.0,93,0.00,,CLR,0.00,VWS V14.01,2013-06-02 10:32:00,
2013-06-02 06:37:00,68.1,65.7,29.82,WSW,244,0.0,0.0,92,0.00,,CLR,0.00,VWS V14.01,2013-06-02 10:37:00,
2013-06-02 06:42:00,68.3,65.9,29.82,WSW,244,0.0,0.0,92,0.00,,CLR,0.00,VWS V14.01,2013-06-02 10:42:00,
2013-06-02 06:47:00,68.4,66.0,29.83,WSW,244,0.0,0.0,92,0.00,,CLR,0.00,VWS V14.01,2013-06-02 10:47:00,
2013-06-02 06:52:00,68.8,66.4,29.83,WSW,244,0.0,0.0,92,0.00,,CLR,0.00,VWS V14.01,2013-06-02 10:52:00,
2013-06-02 06:57:00,68.9,66.2,29.83,WSW,244,0.0,0.0,91,0.00,,CLR,0.00,VWS V14.01,2013-06-02 10:57:00,
2013-06-02 07:02:00,68.9,65.5,29.83,WSW,244,0.0,0.0,89,0.00,,CLR,0.00,VWS V14.01,2013-06-02 11:02:00,
2013-06-02 07:07:00,69.1,65.7,29.83,WSW,244,0.0,0.0,89,0.00,,CLR,0.00,VWS V14.01,2013-06-02 11:07:00,
2013-06-02 07:12:00,69.1,65.4,29.83,WSW,244,0.0,0.0,88,0.00,,CLR,0.00,VWS V14.01,2013-06-02 11:12:00,
2013-06-02 07:17:00,69.3,65.6,29.82,WSW,243,0.0,0.0,88,0.00,,CLR,0.00,VWS V14.01,2013-06-02 11:17:00,
2013-06-02 07:22:00,69.4,65.4,29.82,WSW,244,0.0,0.0,87,0.00,,CLR,0.00,VWS V14.01,2013-06-02 11:22:00,
2013-06-02 07:27:00,69.6,65.2,29.82,WSW,244,0.0,0.0,86,0.00,,CLR,0.00,VWS V14.01,2013-06-02 11:27:00,
2013-06-02 07:32:00,69.9,65.5,29.82,WSW,244,0.0,0.0,86,0.00,,CLR,0.00,VWS V14.01,2013-06-02 11:32:00,
2013-06-02 07:37:00,70.1,65.4,29.82,WSW,244,0.0,0.0,85,0.00,,CLR,0.00,VWS V14.01,2013-06-02 11:37:00,
2013-06-02 07:42:00,70.5,65.8,29.82,WSW,243,0.0,0.0,85,0.00,,CLR,0.00,VWS V14.01,2013-06-02 11:42:00,
2013-06-02 07:47:00,70.8,66.1,29.83,WSW,243,0.0,0.0,85,0.00,,CLR,0.00,VWS V14.01,2013-06-02 11:47:00,
2013-06-02 07:52:00,71.3,65.9,29.83,WSW,245,0.0,0.0,83,0.00,,CLR,0.00,VWS V14.01,2013-06-02 11:52:00,
2013-06-02 07:57:00,72.0,66.6,29.83,WSW,243,0.0,0.0,83,0.00,,CLR,0.00,VWS V14.01,2013-06-02 11:57:00,
2013-06-02 08:02:00,72.5,66.3,29.82,WSW,243,0.0,0.0,81,0.00,,CLR,0.00,VWS V14.01,2013-06-02 12:02:00,
2013-06-02 08:07:00,72.9,66.4,29.82,SW,218,3.0,3.0,80,0.00,,CLR,0.00,VWS V14.01,2013-06-02 12:07:00,
2013-06-02 08:12:00,72.9,66.0,29.82,SW,218,0.0,3.0,79,0.00,,CLR,0.00,VWS V14.01,2013-06-02 12:12:00,
2013-06-02 08:17:00,73.0,66.1,29.82,SW,218,0.0,3.0,79,0.00,,CLR,0.00,VWS V14.01,2013-06-02 12:17:00,
2013-06-02 08:22:00,73.2,66.3,29.82,SW,218,0.0,3.0,79,0.00,,CLR,0.00,VWS V14.01,2013-06-02 12:22:00,
2013-06-02 08:27:00,73.4,66.1,29.82,SW,218,0.0,3.0,78,0.00,,CLR,0.00,VWS V14.01,2013-06-02 12:27:00,
2013-06-02 08:32:00,73.4,66.1,29.82,SW,218,0.0,0.0,78,0.00,,CLR,0.00,VWS V14.01,2013-06-02 12:32:00,
2013-06-02 08:37:00,73.6,66.7,29.82,SW,218,0.0,1.5,79,0.00,,CLR,0.00,VWS V14.01,2013-06-02 12:37:00,
2013-06-02 08:42:00,73.9,66.2,29.82,South,171,7.5,10.5,77,0.00,,CLR,0.00,VWS V14.01,2013-06-02 12:42:00,
2013-06-02 08:47:00,74.3,66.6,29.81,South,171,0.0,10.5,77,0.00,,CLR,0.00,VWS V14.01,2013-06-02 12:47:00,
2013-06-02 08:52:00,74.6,66.2,29.81,South,171,7.5,10.5,75,0.00,,CLR,0.00,VWS V14.01,2013-06-02 12:52:00,
2013-06-02 08:57:00,74.6,66.2,29.81,South,171,10.5,12.0,75,0.00,,CLR,0.00,VWS V14.01,2013-06-02 12:57:00,
2013-06-02 09:02:00,74.3,66.2,29.81,SSE,168,4.5,12.0,76,0.00,,CLR,0.00,VWS V14.01,2013-06-02 13:02:00,
2013-06-02 09:07:00,74.4,66.3,29.81,SSE,168,3.0,12.0,76,0.00,,CLR,0.00,VWS V14.01,2013-06-02 13:07:00,
2013-06-02 09:12:00,74.8,66.7,29.81,SSE,168,6.0,12.0,76,0.00,,CLR,0.00,VWS V14.01,2013-06-02 13:12:00,
2013-06-02 09:17:00,75.0,66.6,29.80,South,171,13.5,15.0,75,0.00,,CLR,0.00,VWS V14.01,2013-06-02 13:17:00,
2013-06-02 09:22:00,75.0,66.9,29.80,South,189,12.0,15.0,76,0.00,,CLR,0.00,VWS V14.01,2013-06-02 13:22:00,
2013-06-02 09:27:00,75.0,66.6,29.80,South,180,10.5,15.0,75,0.00,,CLR,0.00,VWS V14.01,2013-06-02 13:27:00,
2013-06-02 09:32:00,75.5,66.6,29.80,SSW,198,7.5,15.0,74,0.00,,CLR,0.00,VWS V14.01,2013-06-02 13:32:00,
2013-06-02 09:37:00,76.4,66.7,29.80,SSW,210,3.0,15.0,72,0.00,,CLR,0.00,VWS V14.01,2013-06-02 13:37:00,
2013-06-02 09:42:00,77.3,67.6,29.80,South,180,1.5,15.0,72,0.00,,CLR,0.00,VWS V14.01,2013-06-02 13:42:00,
2013-06-02 09:47:00,78.0,67.0,29.79,South,180,1.5,13.5,69,0.00,,CLR,0.00,VWS V14.01,2013-06-02 13:47:00,
2013-06-02 09:52:00,77.8,66.8,29.79,South,180,0.0,9.0,69,0.00,,CLR,0.00,VWS V14.01,2013-06-02 13:52:00,
2013-06-02 09:57:00,77.5,66.9,29.79,SE,141,0.0,9.0,70,0.00,,CLR,0.00,VWS V14.01,2013-06-02 13:57:00,
2013-06-02 10:02:00,77.3,67.6,29.78,SE,141,3.0,6.0,72,0.00,,CLR,0.00,VWS V14.01,2013-06-02 14:02:00,
2013-06-02 10:07:00,77.5,67.4,29.78,SE,136,4.5,7.5,71,0.00,,CLR,0.00,VWS V14.01,2013-06-02 14:07:00,
2013-06-02 10:12:00,77.6,68.3,29.78,SE,136,6.0,9.0,73,0.00,,CLR,0.00,VWS V14.01,2013-06-02 14:12:00,
2013-06-02 10:17:00,77.8,68.5,29.78,SE,136,6.0,9.0,73,0.00,,CLR,0.00,VWS V14.01,2013-06-02 14:17:00,
2013-06-02 10:22:00,78.0,67.4,29.78,SE,138,6.0,9.0,70,0.00,,CLR,0.00,VWS V14.01,2013-06-02 14:22:00,
2013-06-02 10:27:00,77.6,68.7,29.78,SE,137,6.0,9.0,74,0.00,,CLR,0.00,VWS V14.01,2013-06-02 14:27:00,
2013-06-02 10:32:00,78.2,68.4,29.78,SE,137,4.5,9.0,72,0.00,,CLR,0.00,VWS V14.01,2013-06-02 14:32:00,
2013-06-02 10:37:00,79.3,68.7,29.78,SE,137,3.0,9.0,70,0.00,,CLR,0.00,VWS V14.01,2013-06-02 14:37:00,
2013-06-02 10:42:00,79.7,67.8,29.78,SE,137,1.5,9.0,67,0.00,,CLR,0.00,VWS V14.01,2013-06-02 14:42:00,
2013-06-02 10:47:00,79.5,67.6,29.77,SW,220,0.0,7.5,67,0.00,,CLR,0.00,VWS V14.01,2013-06-02 14:47:00,
2013-06-02 10:52:00,79.5,67.6,29.77,SE,143,3.0,7.5,67,0.00,,CLR,0.00,VWS V14.01,2013-06-02 14:52:00,
2013-06-02 10:57:00,80.1,68.2,29.77,South,171,1.5,9.0,67,0.00,,CLR,0.00,VWS V14.01,2013-06-02 14:57:00,
2013-06-02 11:02:00,80.6,67.8,29.77,SE,134,3.0,9.0,65,0.00,,CLR,0.00,VWS V14.01,2013-06-02 15:02:00,
2013-06-02 11:07:00,80.2,67.4,29.77,SE,128,4.5,9.0,65,0.00,,CLR,0.00,VWS V14.01,2013-06-02 15:07:00,
2013-06-02 11:12:00,80.1,68.2,29.77,SE,132,4.5,9.0,67,0.00,,CLR,0.00,VWS V14.01,2013-06-02 15:12:00,
2013-06-02 11:17:00,79.9,67.5,29.77,SE,127,3.0,9.0,66,0.00,,CLR,0.00,VWS V14.01,2013-06-02 15:17:00,
2013-06-02 11:22:00,80.2,67.4,29.77,SE,140,7.5,18.0,65,0.00,,CLR,0.00,VWS V14.01,2013-06-02 15:22:00,
2013-06-02 11:27:00,81.2,67.9,29.77,SSE,154,10.5,18.0,64,0.00,,CLR,0.00,VWS V14.01,2013-06-02 15:27:00,
2013-06-02 11:32:00,81.6,67.8,29.76,SSE,153,7.5,18.0,63,0.00,,CLR,0.00,VWS V14.01,2013-06-02 15:32:00,
2013-06-02 11:37:00,81.6,67.3,29.76,SE,136,6.0,18.0,62,0.00,,CLR,0.00,VWS V14.01,2013-06-02 15:37:00,
2013-06-02 11:42:00,82.0,67.7,29.76,SE,143,9.0,25.5,62,0.00,,CLR,0.00,VWS V14.01,2013-06-02 15:42:00,
2013-06-02 11:47:00,82.4,67.1,29.75,SSW,192,12.0,25.5,60,0.00,,CLR,0.00,VWS V14.01,2013-06-02 15:47:00,
2013-06-02 11:52:00,83.1,67.3,29.75,SSW,205,15.0,25.5,59,0.00,,CLR,0.00,VWS V14.01,2013-06-02 15:52:00,
2013-06-02 11:57:00,83.9,66.5,29.75,SSW,208,19.5,25.5,56,0.00,,CLR,0.00,VWS V14.01,2013-06-02 15:57:00,
2013-06-02 12:02:00,84.5,66.6,29.75,South,191,10.5,27.0,55,0.00,,CLR,0.00,VWS V14.01,2013-06-02 16:02:00,
2013-06-02 12:07:00,84.7,65.7,29.75,SSW,204,22.5,27.0,53,0.00,,SCT046,0.00,VWS V14.01,2013-06-02 16:07:00,
2013-06-02 12:12:00,84.9,65.9,29.75,SW,222,16.5,30.0,53,0.00,,SCT046,0.00,VWS V14.01,2013-06-02 16:12:00,
2013-06-02 12:17:00,85.1,65.5,29.74,SSW,197,19.5,30.0,52,0.00,,SCT046,0.00,VWS V14.01,2013-06-02 16:17:00,
2013-06-02 12:22:00,85.3,65.7,29.74,SSW,196,16.5,30.0,52,0.00,,SCT046,0.00,VWS V14.01,2013-06-02 16:22:00,
2013-06-02 12:27:00,85.5,65.3,29.74,SW,224,16.5,30.0,51,0.00,,SCT046,0.00,VWS V14.01,2013-06-02 16:27:00,
2013-06-02 12:32:00,85.7,64.9,29.74,SSW,192,19.5,30.0,50,0.00,,SCT046,0.00,VWS V14.01,2013-06-02 16:32:00,
2013-06-02 12:37:00,85.7,65.5,29.74,SSE,162,18.0,34.5,51,0.00,,SCT046,0.00,VWS V14.01,2013-06-02 16:37:00,
2013-06-02 12:42:00,86.0,64.6,29.74,SSW,207,15.0,34.5,49,0.00,,SCT046,0.00,VWS V14.01,2013-06-02 16:42:00,
2013-06-02 12:47:00,86.0,65.2,29.73,SW,216,21.0,34.5,50,0.00,,SCT046,0.00,VWS V14.01,2013-06-02 16:47:00,
2013-06-02 12:52:00,86.0,65.2,29.73,SSW,205,18.0,34.5,50,0.00,,SCT046,0.00,VWS V14.01,2013-06-02 16:52:00,
2013-06-02 12:57:00,86.2,64.8,29.73,SW,230,21.0,30.0,49,0.00,,SCT046,0.00,VWS V14.01,2013-06-02 16:57:00,
2013-06-02 13:02:00,86.0,64.6,29.72,South,189,27.0,30.0,49,0.00,,SCT046,0.00,VWS V14.01,2013-06-02 17:02:00,
2013-06-02 13:07:00,86.0,65.2,29.72,SSW,192,24.0,34.5,50,0.00,,FEW055,0.00,VWS V14.01,2013-06-02 17:07:00,
2013-06-02 13:12:00,86.0,65.2,29.72,SSW,206,24.0,34.5,50,0.00,,FEW055,0.00,VWS V14.01,2013-06-02 17:12:00,
2013-06-02 13:17:00,85.7,64.4,29.72,SSW,200,22.5,34.5,49,0.00,,FEW055,0.00,VWS V14.01,2013-06-02 17:17:00,
2013-06-02 13:22:00,85.7,64.9,29.72,WSW,241,18.0,34.5,50,0.00,,FEW055,0.00,VWS V14.01,2013-06-02 17:22:00,
2013-06-02 13:27:00,86.0,64.0,29.72,SSW,208,24.0,34.5,48,0.00,,FEW055,0.00,VWS V14.01,2013-06-02 17:27:00,
2013-06-02 13:32:00,85.7,64.9,29.72,SSW,195,16.5,34.5,50,0.00,,FEW055,0.00,VWS V14.01,2013-06-02 17:32:00,
2013-06-02 13:37:00,86.2,65.4,29.72,SW,214,13.5,34.5,50,0.00,,FEW055,0.00,VWS V14.01,2013-06-02 17:37:00,
2013-06-02 13:42:00,86.4,65.0,29.72,SSW,208,21.0,33.0,49,0.00,,FEW055,0.00,VWS V14.01,2013-06-02 17:42:00,
2013-06-02 13:47:00,86.0,65.2,29.71,SSW,197,22.5,33.0,50,0.00,,FEW055,0.00,VWS V14.01,2013-06-02 17:47:00,
2013-06-02 13:52:00,85.7,64.9,29.71,SSW,207,21.0,27.0,50,0.00,,FEW055,0.00,VWS V14.01,2013-06-02 17:52:00,
2013-06-02 13:57:00,85.7,64.9,29.71,SSW,202,16.5,27.0,50,0.00,,FEW055,0.00,VWS V14.01,2013-06-02 17:57:00,
2013-06-02 14:02:00,86.0,64.6,29.69,SSW,201,28.5,31.5,49,0.00,,FEW055,0.00,VWS V14.01,2013-06-02 18:02:00,
2013-06-02 14:07:00,85.7,64.4,29.69,SSW,195,27.0,31.5,49,0.00,,FEW055,0.00,VWS V14.01,2013-06-02 18:07:00,
2013-06-02 14:12:00,85.5,64.8,29.69,SW,229,12.0,31.5,50,0.00,,FEW055,0.00,VWS V14.01,2013-06-02 18:12:00,
2013-06-02 14:17:00,86.2,64.8,29.69,SSW,192,18.0,31.5,49,0.00,,FEW055,0.00,VWS V14.01,2013-06-02 18:17:00,
2013-06-02 14:22:00,86.4,65.6,29.69,South,189,28.5,31.5,50,0.00,,FEW055,0.00,VWS V14.01,2013-06-02 18:22:00,
2013-06-02 14:27:00,86.4,65.6,29.69,SW,236,19.5,31.5,50,0.00,,FEW055,0.00,VWS V14.01,2013-06-02 18:27:00,
2013-06-02 14:32:00,86.4,64.4,29.68,SSW,199,21.0,28.5,48,0.00,,FEW055,0.00,VWS V14.01,2013-06-02 18:32:00,
2013-06-02 14:37:00,85.1,65.0,29.68,South,191,25.5,30.0,51,0.00,,FEW055,0.00,VWS V14.01,2013-06-02 18:37:00,
2013-06-02 14:42:00,85.3,64.6,29.68,SW,224,16.5,30.0,50,0.00,,FEW055,0.00,VWS V14.01,2013-06-02 18:42:00,
2013-06-02 14:47:00,85.5,65.3,29.69,SSW,207,12.0,30.0,51,0.00,,FEW055,0.00,VWS V14.01,2013-06-02 18:47:00,
2013-06-02 14:52:00,86.0,65.2,29.69,SSW,211,16.5,30.0,50,0.00,,FEW055,0.00,VWS V14.01,2013-06-02 18:52:00,
2013-06-02 14:57:00,86.2,65.4,29.69,SSW,193,21.0,30.0,50,0.00,,FEW055,0.00,VWS V14.01,2013-06-02 18:57:00,
2013-06-02 15:02:00,86.2,65.4,29.68,SW,221,19.5,31.5,50,0.00,,FEW055,0.00,VWS V14.01,2013-06-02 19:02:00,
2013-06-02 15:07:00,86.4,65.6,29.68,SSW,205,19.5,31.5,50,0.00,,SCT055,0.00,VWS V14.01,2013-06-02 19:07:00,
2013-06-02 15:12:00,86.8,64.8,29.68,SSW,197,19.5,31.5,48,0.00,,SCT055,0.00,VWS V14.01,2013-06-02 19:12:00,
2013-06-02 15:17:00,86.8,64.8,29.66,SSW,209,21.0,33.0,48,0.00,,SCT055,0.00,VWS V14.01,2013-06-02 19:17:00,
2013-06-02 15:22:00,86.4,63.8,29.66,SSW,206,27.0,33.0,47,0.00,,SCT055,0.00,VWS V14.01,2013-06-02 19:22:00,
2013-06-02 15:27:00,86.4,65.0,29.66,SW,218,19.5,33.0,49,0.00,,SCT055,0.00,VWS V14.01,2013-06-02 19:27:00,
2013-06-02 15:32:00,86.6,65.2,29.66,SW,220,15.0,33.0,49,0.00,,SCT055,0.00,VWS V14.01,2013-06-02 19:32:00,
2013-06-02 15:37:00,86.6,64.0,29.66,SW,230,18.0,33.0,47,0.00,,SCT055,0.00,VWS V14.01,2013-06-02 19:37:00,
2013-06-02 15:42:00,86.4,63.8,29.66,SW,220,22.5,31.5,47,0.00,,SCT055,0.00,VWS V14.01,2013-06-02 19:42:00,
2013-06-02 15:47:00,86.0,63.4,29.67,SW,226,21.0,30.0,47,0.00,,SCT055,0.00,VWS V14.01,2013-06-02 19:47:00,
2013-06-02 15:52:00,85.3,63.4,29.67,SW,230,18.0,30.0,48,0.00,,SCT055,0.00,VWS V14.01,2013-06-02 19:52:00,
2013-06-02 15:57:00,83.3,61.0,29.67,NNW,340,15.0,30.0,47,0.00,,SCT055,0.00,VWS V14.01,2013-06-02 19:57:00,
2013-06-02 16:02:00,80.1,62.0,29.72,WNW,287,12.0,30.0,54,0.00,,FEW070,0.00,VWS V14.01,2013-06-02 20:02:00,
2013-06-02 16:07:00,76.7,63.2,29.72,NNW,343,13.5,30.0,63,0.00,,FEW070,0.00,VWS V14.01,2013-06-02 20:07:00,
2013-06-02 16:12:00,73.9,64.3,29.72,NW,324,3.0,30.0,72,0.02,,FEW070,0.02,VWS V14.01,2013-06-02 20:12:00,
2013-06-02 16:17:00,72.0,64.8,29.76,WSW,251,0.0,15.0,78,0.04,,FEW070,0.04,VWS V14.01,2013-06-02 20:17:00,
2013-06-02 16:22:00,70.8,64.7,29.76,NE,51,0.0,15.0,81,0.04,,FEW070,0.04,VWS V14.01,2013-06-02 20:22:00,
2013-06-02 16:27:00,69.9,64.5,29.76,NW,309,4.5,13.5,83,0.04,,FEW070,0.04,VWS V14.01,2013-06-02 20:27:00,
2013-06-02 16:32:00,69.1,64.4,29.77,NW,314,0.0,9.0,85,0.08,,FEW070,0.08,VWS V14.01,2013-06-02 20:32:00,
2013-06-02 16:37:00,68.4,64.1,29.77,NNE,14,3.0,7.5,86,0.19,,FEW070,0.19,VWS V14.01,2013-06-02 20:37:00,
2013-06-02 16:42:00,68.1,64.4,29.77,WNW,297,0.0,7.5,88,0.20,,FEW070,0.20,VWS V14.01,2013-06-02 20:42:00,
2013-06-02 16:47:00,67.9,64.5,29.75,NNE,16,0.0,7.5,89,0.21,,FEW070,0.21,VWS V14.01,2013-06-02 20:47:00,
2013-06-02 16:52:00,67.8,64.4,29.75,North,358,0.0,7.5,89,0.30,,FEW070,0.30,VWS V14.01,2013-06-02 20:52:00,
2013-06-02 16:57:00,67.4,64.4,29.75,WNW,301,0.0,7.5,90,0.38,,FEW070,0.38,VWS V14.01,2013-06-02 20:57:00,
2013-06-02 17:02:00,67.3,64.3,29.78,WNW,301,0.0,6.0,90,0.39,,FEW070,0.39,VWS V14.01,2013-06-02 21:02:00,
2013-06-02 17:07:00,67.1,64.1,29.78,NW,320,0.0,4.5,90,0.47,,FEW070,0.47,VWS V14.01,2013-06-02 21:07:00,
2013-06-02 17:12:00,66.9,64.2,29.78,NNE,32,0.0,7.5,91,0.51,,FEW070,0.51,VWS V14.01,2013-06-02 21:12:00,
2013-06-02 17:17:00,66.8,64.1,29.76,NE,47,0.0,7.5,91,0.50,,FEW070,0.54,VWS V14.01,2013-06-02 21:17:00,
2013-06-02 17:22:00,66.6,63.9,29.76,NE,46,0.0,7.5,91,0.50,,FEW070,0.54,VWS V14.01,2013-06-02 21:22:00,
2013-06-02 17:27:00,66.4,63.7,29.76,NE,47,0.0,7.5,91,0.50,,FEW070,0.54,VWS V14.01,2013-06-02 21:27:00,
2013-06-02 17:32:00,66.4,63.7,29.78,SW,218,6.0,7.5,91,0.50,,FEW070,0.54,VWS V14.01,2013-06-02 21:32:00,
2013-06-02 17:37:00,66.4,63.7,29.78,SW,218,0.0,6.0,91,0.38,,FEW070,0.56,VWS V14.01,2013-06-02 21:37:00,
2013-06-02 17:42:00,66.4,63.7,29.78,SW,218,0.0,6.0,91,0.37,,FEW070,0.57,VWS V14.01,2013-06-02 21:42:00,
2013-06-02 17:47:00,66.4,64.0,29.78,SW,217,13.5,13.5,92,0.38,,FEW070,0.59,VWS V14.01,2013-06-02 21:47:00,
2013-06-02 17:52:00,66.4,64.0,29.78,SW,224,6.0,13.5,92,0.38,,FEW070,0.60,VWS V14.01,2013-06-02 21:52:00,
2013-06-02 17:57:00,66.3,63.9,29.78,WSW,241,0.0,13.5,92,0.22,,FEW070,0.60,VWS V14.01,2013-06-02 21:57:00,
2013-06-02 18:02:00,66.3,63.9,29.79,West,261,0.0,13.5,92,0.24,,FEW070,0.63,VWS V14.01,2013-06-02 22:02:00,
2013-06-02 18:07:00,66.3,63.9,29.79,West,261,0.0,13.5,92,0.20,,,0.64,VWS V14.01,2013-06-02 22:07:00,
2013-06-02 18:12:00,66.3,63.9,29.79,West,260,0.0,12.0,92,0.15,,,0.64,VWS V14.01,2013-06-02 22:12:00,
2013-06-02 18:17:00,66.3,63.9,29.79,West,261,0.0,6.0,92,0.11,,,0.64,VWS V14.01,2013-06-02 22:17:00,
2013-06-02 18:22:00,66.3,63.9,29.79,West,260,0.0,1.5,92,0.10,,,0.64,VWS V14.01,2013-06-02 22:22:00,
2013-06-02 18:27:00,66.3,63.9,29.79,West,261,0.0,0.0,92,0.10,,,0.64,VWS V14.01,2013-06-02 22:27:00,
2013-06-02 18:32:00,66.3,63.9,29.78,West,260,0.0,0.0,92,0.10,,,0.64,VWS V14.01,2013-06-02 22:32:00,
2013-06-02 18:37:00,66.3,63.9,29.78,West,260,0.0,0.0,92,0.09,,,0.64,VWS V14.01,2013-06-02 22:37:00,
2013-06-02 18:42:00,66.1,63.7,29.78,West,261,0.0,1.5,92,0.07,,,0.64,VWS V14.01,2013-06-02 22:42:00,
2013-06-02 18:47:00,66.1,64.0,29.78,West,260,0.0,1.5,93,0.06,,,0.64,VWS V14.01,2013-06-02 22:47:00,
2013-06-02 18:52:00,66.3,64.2,29.78,West,260,0.0,1.5,93,0.04,,,0.64,VWS V14.01,2013-06-02 22:52:00,
2013-06-02 18:57:00,66.3,64.2,29.78,West,260,0.0,1.5,93,0.04,,,0.64,VWS V14.01,2013-06-02 22:57:00,
2013-06-02 19:02:00,66.3,64.2,29.78,West,260,0.0,1.5,93,0.02,,,0.64,VWS V14.01,2013-06-02 23:02:00,
2013-06-02 19:07:00,66.3,64.2,29.78,West,261,0.0,0.0,93,0.01,,BKN120,0.64,VWS V14.01,2013-06-02 23:07:00,
2013-06-02 19:12:00,66.4,64.3,29.78,West,262,0.0,0.0,93,0.00,,BKN120,0.64,VWS V14.01,2013-06-02 23:12:00,
2013-06-02 19:17:00,66.3,64.2,29.76,SE,138,4.5,4.5,93,0.00,,BKN120,0.64,VWS V14.01,2013-06-02 23:17:00,
2013-06-02 19:22:00,66.1,64.0,29.76,SE,138,4.5,6.0,93,0.00,,BKN120,0.64,VWS V14.01,2013-06-02 23:22:00,
2013-06-02 19:27:00,66.1,64.0,29.76,SE,138,3.0,6.0,93,0.00,,BKN120,0.64,VWS V14.01,2013-06-02 23:27:00,
2013-06-02 19:32:00,66.1,64.0,29.75,SE,136,3.0,6.0,93,0.00,,BKN120,0.64,VWS V14.01,2013-06-02 23:32:00,
2013-06-02 19:37:00,66.1,64.0,29.75,SE,135,4.5,6.0,93,0.00,,BKN120,0.64,VWS V14.01,2013-06-02 23:37:00,
2013-06-02 19:42:00,66.3,64.2,29.75,SE,136,1.5,6.0,93,0.00,,BKN120,0.64,VWS V14.01,2013-06-02 23:42:00,
2013-06-02 19:47:00,66.3,64.2,29.77,SE,146,7.5,9.0,93,0.00,,BKN120,0.64,VWS V14.01,2013-06-02 23:47:00,
2013-06-02 19:52:00,66.1,64.0,29.77,SE,143,10.5,12.0,93,0.00,,BKN120,0.64,VWS V14.01,2013-06-02 23:52:00,
2013-06-02 19:57:00,65.9,63.8,29.77,SSE,147,9.0,12.0,93,0.00,,BKN120,0.64,VWS V14.01,2013-06-02 23:57:00,
2013-06-02 20:02:00,65.9,63.8,29.77,SSW,202,7.5,12.0,93,0.00,,BKN120,0.64,VWS V14.01,2013-06-03 00:02:00,
2013-06-02 20:07:00,66.1,64.0,29.77,SSW,203,4.5,12.0,93,0.00,,OVC090,0.64,VWS V14.01,2013-06-03 00:07:00,
2013-06-02 20:12:00,66.3,64.2,29.77,SSW,203,0.0,12.0,93,0.00,,OVC090,0.64,VWS V14.01,2013-06-03 00:12:00,
2013-06-02 20:17:00,66.4,64.3,29.77,SSW,203,0.0,10.5,93,0.00,,OVC090,0.64,VWS V14.01,2013-06-03 00:17:00,
2013-06-02 20:22:00,66.4,64.3,29.77,SSW,203,0.0,10.5,93,0.00,,OVC090,0.64,VWS V14.01,2013-06-03 00:22:00,
2013-06-02 20:27:00,66.3,64.2,29.77,SSW,204,0.0,4.5,93,0.00,,OVC090,0.64,VWS V14.01,2013-06-03 00:27:00,
2013-06-02 20:32:00,66.3,64.2,29.77,SSW,204,0.0,1.5,93,0.00,,OVC090,0.64,VWS V14.01,2013-06-03 00:32:00,
2013-06-02 20:37:00,66.3,64.2,29.77,SSW,203,0.0,0.0,93,0.00,,OVC090,0.64,VWS V14.01,2013-06-03 00:37:00,
2013-06-02 20:42:00,66.3,64.2,29.77,SSW,203,0.0,0.0,93,0.00,,OVC090,0.64,VWS V14.01,2013-06-03 00:42:00,
2013-06-02 20:47:00,66.3,64.2,29.78,SSW,203,0.0,0.0,93,0.00,,OVC090,0.64,VWS V14.01,2013-06-03 00:47:00,
2013-06-02 20:52:00,66.3,64.2,29.78,SSW,203,0.0,1.5,93,0.00,,OVC090,0.64,VWS V14.01,2013-06-03 00:52:00,
2013-06-02 20:57:00,66.1,64.0,29.78,SSW,204,0.0,1.5,93,0.00,,OVC090,0.64,VWS V14.01,2013-06-03 00:57:00,
2013-06-02 21:02:00,66.1,64.0,29.79,SSW,203,0.0,1.5,93,0.00,,OVC090,0.64,VWS V14.01,2013-06-03 01:02:00,
2013-06-02 21:07:00,66.1,64.0,29.79,SSW,204,0.0,1.5,93,0.00,,SCT120,0.64,VWS V14.01,2013-06-03 01:07:00,
2013-06-02 21:12:00,65.9,63.8,29.79,SW,233,0.0,4.5,93,0.00,,SCT120,0.64,VWS V14.01,2013-06-03 01:12:00,
2013-06-02 21:17:00,65.9,63.8,29.79,SW,233,0.0,4.5,93,0.00,,SCT120,0.64,VWS V14.01,2013-06-03 01:17:00,
2013-06-02 21:22:00,65.8,63.7,29.79,SW,233,0.0,4.5,93,0.00,,SCT120,0.64,VWS V14.01,2013-06-03 01:22:00,
2013-06-02 21:27:00,65.6,63.5,29.79,SW,233,0.0,4.5,93,0.00,,SCT120,0.64,VWS V14.01,2013-06-03 01:27:00,
2013-06-02 21:32:00,65.6,63.5,29.79,SW,233,0.0,4.5,93,0.00,,SCT120,0.64,VWS V14.01,2013-06-03 01:32:00,
2013-06-02 21:37:00,65.8,63.7,29.79,SW,233,0.0,0.0,93,0.00,,SCT120,0.64,VWS V14.01,2013-06-03 01:37:00,
2013-06-02 21:42:00,65.6,63.5,29.79,SW,233,0.0,0.0,93,0.00,,SCT120,0.64,VWS V14.01,2013-06-03 01:42:00,
2013-06-02 21:47:00,65.6,63.5,29.79,SW,233,0.0,0.0,93,0.00,,SCT120,0.64,VWS V14.01,2013-06-03 01:47:00,
2013-06-02 21:52:00,65.8,63.7,29.79,SW,233,0.0,0.0,93,0.00,,SCT120,0.64,VWS V14.01,2013-06-03 01:52:00,
2013-06-02 21:57:00,65.8,63.7,29.79,SW,233,0.0,0.0,93,0.00,,SCT120,0.64,VWS V14.01,2013-06-03 01:57:00,
2013-06-02 22:02:00,65.6,63.5,29.79,SW,232,0.0,0.0,93,0.00,,CLR,0.64,VWS V14.01,2013-06-03 02:02:00,
2013-06-02 22:07:00,65.4,63.3,29.79,SW,233,0.0,0.0,93,0.00,,CLR,0.64,VWS V14.01,2013-06-03 02:07:00,
2013-06-02 22:12:00,65.4,63.3,29.79,SW,233,0.0,0.0,93,0.00,,CLR,0.64,VWS V14.01,2013-06-03 02:12:00,
2013-06-02 22:17:00,65.3,63.2,29.79,SW,233,0.0,0.0,93,0.00,,CLR,0.64,VWS V14.01,2013-06-03 02:17:00,
2013-06-02 22:22:00,65.3,63.5,29.79,SW,233,0.0,0.0,94,0.00,,CLR,0.64,VWS V14.01,2013-06-03 02:22:00,
2013-06-02 22:27:00,65.4,63.6,29.79,SW,233,0.0,1.5,94,0.00,,CLR,0.64,VWS V14.01,2013-06-03 02:27:00,
2013-06-02 22:32:00,65.4,63.6,29.80,SW,232,0.0,1.5,94,0.00,,CLR,0.64,VWS V14.01,2013-06-03 02:32:00,
2013-06-02 22:37:00,65.4,63.6,29.80,SW,233,0.0,1.5,94,0.00,,CLR,0.64,VWS V14.01,2013-06-03 02:37:00,
2013-06-02 22:42:00,65.6,63.8,29.80,SW,233,0.0,1.5,94,0.00,,CLR,0.64,VWS V14.01,2013-06-03 02:42:00,
2013-06-02 22:47:00,65.6,63.8,29.82,SW,233,0.0,3.0,94,0.08,,CLR,0.72,VWS V14.01,2013-06-03 02:47:00,
2013-06-02 22:52:00,65.6,63.8,29.82,SW,233,0.0,3.0,94,0.14,,CLR,0.78,VWS V14.01,2013-06-03 02:52:00,
2013-06-02 22:58:00,65.6,63.8,29.82,SW,233,0.0,3.0,94,0.17,,CLR,0.81,VWS V14.01,2013-06-03 02:58:00,
2013-06-02 23:00:00,65.4,63.6,29.80,SW,222,4.5,4.5,94,0.02,,FEW050,0.83,VWS V14.01,2013-06-03 03:00:00,
2013-06-02 23:01:00,65.4,63.6,29.80,SW,218,6.0,6.0,94,0.02,,FEW050,0.83,VWS V14.01,2013-06-03 03:01:00,
2013-06-02 23:02:00,65.4,63.6,29.80,SSW,213,6.0,6.0,94,0.02,,BKN120,0.83,VWS V14.01,2013-06-03 03:02:00,
2013-06-02 23:03:00,65.6,63.8,29.80,SW,233,0.0,3.0,94,0.18,,FEW050,0.82,VWS V14.01,2013-06-03 03:03:00,
2013-06-02 23:04:00,65.4,63.6,29.80,SSW,208,6.0,7.5,94,0.02,,BKN120,0.83,VWS V14.01,2013-06-03 03:04:00,
2013-06-02 23:05:00,65.4,63.6,29.80,SSW,207,7.5,7.5,94,0.02,,BKN120,0.83,VWS V14.01,2013-06-03 03:05:00,
2013-06-02 23:06:00,65.4,63.6,29.80,SSW,206,7.5,7.5,94,0.01,,BKN120,0.83,VWS V14.01,2013-06-03 03:06:00,
2013-06-02 23:07:00,65.4,63.6,29.80,SSW,206,6.0,7.5,94,0.01,,BKN120,0.83,VWS V14.01,2013-06-03 03:07:00,
2013-06-02 23:08:00,65.6,63.8,29.80,SW,233,0.0,3.0,94,0.18,,FEW050,0.82,VWS V14.01,2013-06-03 03:08:00,
2013-06-02 23:09:00,65.4,63.6,29.80,SSW,200,6.0,7.5,94,0.01,,BKN120,0.83,VWS V14.01,2013-06-03 03:09:00,
2013-06-02 23:10:00,65.4,63.6,29.80,SSW,200,3.0,7.5,94,0.01,,BKN120,0.83,VWS V14.01,2013-06-03 03:10:00,
2013-06-02 23:12:00,65.3,63.5,29.80,SSW,201,4.5,7.5,94,0.01,,BKN120,0.83,VWS V14.01,2013-06-03 03:12:00,
2013-06-02 23:13:00,65.6,63.8,29.80,SW,233,0.0,0.0,94,0.18,,FEW050,0.82,VWS V14.01,2013-06-03 03:13:00,
2013-06-02 23:18:00,65.6,63.8,29.80,SW,233,0.0,0.0,94,0.18,,FEW050,0.82,VWS V14.01,2013-06-03 03:18:00,
2013-06-02 23:23:00,65.4,63.6,29.80,SW,233,0.0,0.0,94,0.18,,FEW050,0.82,VWS V14.01,2013-06-03 03:23:00,
2013-06-02 23:28:00,65.4,63.6,29.80,SW,233,0.0,0.0,94,0.18,,FEW050,0.82,VWS V14.01,2013-06-03 03:28:00,
2013-06-02 23:33:00,65.6,63.8,29.80,SW,233,0.0,0.0,94,0.19,,FEW050,0.83,VWS V14.01,2013-06-03 03:33:00,
2013-06-02 23:38:00,65.6,63.8,29.80,SW,232,0.0,0.0,94,0.19,,FEW050,0.83,VWS V14.01,2013-06-03 03:38:00,
2013-06-02 23:43:00,65.4,63.6,29.80,SW,233,0.0,0.0,94,0.19,,FEW050,0.83,VWS V14.01,2013-06-03 03:43:00,
2013-06-02 23:48:00,65.4,63.6,29.79,SW,234,0.0,0.0,94,0.19,,FEW050,0.83,VWS V14.01,2013-06-03 03:48:00,
2013-06-02 23:53:00,65.4,63.6,29.79,SW,233,0.0,0.0,94,0.06,,FEW050,0.83,VWS V14.01,2013-06-03 03:53:00,
2013-06-02 23:58:00,65.4,63.6,29.79,SW,233,4.5,4.5,94,0.03,,FEW050,0.83,VWS V14.01,2013-06-03 03:58:00,